ON7SD-5 Weather Reports


time (UTC)temp
C
wind
direction
speed
KPH
gust
KPH
rain 1hr
cm
rain 24hr
cm
rain mn
cm
humidity
%
barometer
mb
20260506185204 12 4 1.6 12.9 0.00 0.00 0.00 73 1010.5
20260506184704 12 1 1.6 3.2 0.00 0.00 0.00 72 1010.3
20260506184204 12 1 1.6 11.3 0.00 0.00 0.00 71 1010.4
20260506183704 13 1 1.6 8.0 0.00 0.00 0.00 71 1010.3
20260506183204 13 1 1.6 8.0 0.00 0.00 0.00 71 1010.2
20260506182704 13 2 1.6 9.7 0.00 0.00 0.00 70 1010.2
20260506182204 13 1 1.6 4.8 0.00 0.00 0.00 69 1010.2
20260506181704 13 1 3.2 11.3 0.00 0.00 0.00 68 1010.1
20260506181204 13 1 3.2 14.5 0.00 0.00 0.00 68 1010.0
20260506180704 13 14 1.6 11.3 0.00 0.00 0.00 68 1009.9
20260506180204 13 13 3.2 9.7 0.00 0.00 0.00 70 1009.8
20260506175704 13 13 3.2 11.3 0.00 0.00 0.00 70 1009.8
20260506175204 13 13 3.2 9.7 0.00 0.00 0.00 68 1009.8
20260506174704 13 11 4.8 9.7 0.00 0.00 0.00 69 1009.8
20260506174204 13 8 4.8 14.5 0.00 0.00 0.00 68 1009.6
20260506173704 14 8 3.2 14.5 0.00 0.00 0.00 68 1009.6
20260506173204 14 6 3.2 11.3 0.00 0.00 0.00 67 1009.5
20260506172704 14 7 4.8 19.3 0.00 0.00 0.00 67 1009.4
20260506172204 14 73 4.8 16.1 0.00 0.00 0.00 66 1009.4
20260506171704 14 21 6.4 16.1 0.00 0.00 0.00 65 1009.4
20260506171204 15 20 4.8 16.1 0.00 0.00 0.00 65 1009.3
20260506170704 15 3 4.8 16.1 0.00 0.00 0.00 63 1009.3
20260506170204 15 8 6.4 19.3 0.00 0.00 0.00 62 1009.2
20260506165704 15 5 6.4 16.1 0.00 0.00 0.00 59 1009.2
20260506165204 15 13 6.4 16.1 0.00 0.00 0.00 62 1009.1
20260506164704 15 10 4.8 14.5 0.00 0.00 0.00 60 1009.1
20260506164204 15 14 3.2 9.7 0.00 0.00 0.00 62 1009.1
20260506163704 15 15 4.8 14.5 0.00 0.00 0.00 64 1009.1
20260506163204 15 22 4.8 14.5 0.00 0.00 0.00 64 1009.1
20260506162704 15 7 3.2 12.9 0.00 0.00 0.00 64 1009.1
20260506162204 16 15 0.0 11.3 0.00 0.00 0.00 64 1009.0
20260506161704 15 15 3.2 8.0 0.00 0.00 0.00 62 1009.0
20260506161204 15 0 4.8 14.5 0.00 0.00 0.00 61 1009.0
20260506160704 16 17 4.8 11.3 0.00 0.00 0.00 61 1009.0
20260506160204 16 5 4.8 12.9 0.00 0.00 0.00 62 1009.0
20260506155704 16 13 6.4 19.3 0.00 0.00 0.00 61 1009.0
20260506155204 16 7 4.8 17.7 0.00 0.00 0.00 62 1009.0
20260506154704 16 29 4.8 11.3 0.00 0.00 0.00 62 1008.9
20260506154204 16 2 8.0 17.7 0.00 0.00 0.00 62 1008.9
20260506153704 16 8 4.8 16.1 0.00 0.00 0.00 63 1008.9
20260506153204 16 16 3.2 12.9 0.00 0.00 0.00 62 1009.0
20260506152704 16 24 3.2 11.3 0.00 0.00 0.00 63 1009.0
20260506152204 16 15 3.2 16.1 0.00 0.00 0.00 64 1008.9
20260506151704 15 7 3.2 14.5 0.00 0.00 0.00 65 1009.0
20260506151204 15 23 3.2 16.1 0.00 0.00 0.00 65 1008.9
20260506150704 15 30 4.8 11.3 0.00 0.00 0.00 64 1008.9
20260506150204 15 4 4.8 14.5 0.00 0.00 0.00 64 1009.0
20260506145704 15 8 3.2 12.9 0.00 0.00 0.00 64 1008.9
20260506145204 15 13 1.6 8.0 0.00 0.00 0.00 64 1008.9
20260506144704 15 23 3.2 14.5 0.00 0.00 0.00 64 1008.9
20260506144204 15 1 1.6 9.7 0.00 0.00 0.00 64 1008.9
20260506143704 15 7 3.2 9.7 0.00 0.00 0.00 64 1008.9
20260506143204 15 1 3.2 12.9 0.00 0.00 0.00 65 1008.9
20260506142704 15 12 4.8 9.7 0.00 0.00 0.00 66 1008.9
20260506142204 15 11 4.8 14.5 0.00 0.00 0.00 65 1008.9
20260506141704 15 11 3.2 8.0 0.00 0.00 0.00 66 1008.9
20260506141204 15 12 4.8 14.5 0.00 0.00 0.00 67 1009.0
20260506140704 15 9 4.8 14.5 0.00 0.00 0.00 67 1008.9
20260506140204 15 1 4.8 14.5 0.00 0.00 0.00 66 1008.9
20260506135704 15 4 3.2 12.9 0.00 0.00 0.00 67 1008.9
20260506135204 15 3 1.6 11.3 0.00 0.00 0.00 67 1008.9
20260506134704 15 1 1.6 8.0 0.00 0.00 0.00 69 1009.0
20260506134204 15 1 1.6 9.7 0.00 0.00 0.00 68 1009.0
20260506133704 15 7 3.2 12.9 0.00 0.00 0.00 68 1009.0
20260506133204 15 351 3.2 14.5 0.00 0.00 0.00 68 1009.1
20260506132704 15 340 3.2 9.7 0.00 0.00 0.00 70 1009.1
20260506132204 14 328 3.2 16.1 0.00 0.00 0.00 71 1009.0
20260506131704 14 11 3.2 9.7 0.00 0.00 0.00 70 1009.0
20260506131204 14 11 3.2 14.5 0.00 0.00 0.00 71 1009.0
20260506130704 14 11 3.2 9.7 0.00 0.00 0.00 70 1009.0
20260506130204 14 11 3.2 9.7 0.00 0.00 0.00 71 1008.9
20260506125704 14 11 3.2 11.3 0.00 0.00 0.00 71 1008.9
20260506125204 15 12 3.2 9.7 0.00 0.00 0.00 70 1008.8
20260506124704 14 15 4.8 11.3 0.00 0.00 0.00 71 1008.8
20260506124204 14 12 4.8 14.5 0.00 0.00 0.00 69 1008.8
20260506123704 14 11 1.6 11.3 0.00 0.00 0.00 69 1008.8
20260506123204 14 11 1.6 9.7 0.00 0.00 0.00 71 1008.8
20260506122704 14 11 3.2 11.3 0.00 0.00 0.00 72 1008.8
20260506122204 14 11 3.2 9.7 0.00 0.00 0.00 72 1008.8
20260506121704 14 13 1.6 14.5 0.00 0.00 0.00 71 1008.8
20260506121204 14 6 1.6 9.7 0.00 0.00 0.00 72 1008.9
20260506120704 14 6 1.6 9.7 0.00 0.00 0.00 73 1008.8
20260506120204 13 4 3.2 8.0 0.00 0.00 0.00 73 1008.8
20260506115704 13 4 4.8 11.3 0.00 0.00 0.00 72 1008.8
20260506115204 13 5 3.2 14.5 0.00 0.00 0.00 71 1008.8
20260506114704 14 5 1.6 9.7 0.00 0.00 0.00 71 1008.8
20260506114204 15 5 1.6 14.5 0.00 0.00 0.00 70 1008.8
20260506113704 15 10 1.6 9.7 0.00 0.00 0.00 70 1008.8
20260506113204 14 10 1.6 6.4 0.00 0.00 0.00 72 1008.8
20260506112704 14 10 3.2 9.7 0.00 0.00 0.00 73 1008.8
20260506112204 13 10 3.2 8.0 0.00 0.00 0.00 75 1008.8
20260506111704 13 10 1.6 11.3 0.00 0.00 0.00 75 1008.8
20260506111204 13 10 1.6 9.7 0.00 0.00 0.00 77 1008.9
20260506110704 13 9 3.2 9.7 0.00 0.00 0.00 77 1008.9
20260506110204 12 10 4.8 11.3 0.00 0.00 0.00 78 1008.9
20260506105704 12 12 3.2 12.9 0.00 0.00 0.00 78 1008.9
20260506105204 12 13 3.2 12.9 0.00 0.00 0.00 79 1008.9
20260506104704 12 13 3.2 9.7 0.00 0.00 0.00 79 1008.9
20260506104204 12 14 3.2 9.7 0.00 0.00 0.00 80 1008.9
20260506103704 12 13 3.2 12.9 0.00 0.00 0.00 80 1008.9
20260506103204 12 15 3.2 11.3 0.00 0.00 0.00 81 1008.9
20260506102704 11 21 3.2 14.5 0.00 0.00 0.00 82 1008.9
20260506102204 11 34 3.2 9.7 0.00 0.00 0.00 82 1009.0
20260506101704 11 34 1.6 11.3 0.00 0.00 0.00 82 1009.0
20260506101204 11 34 1.6 11.3 0.00 0.00 0.00 84 1009.0
20260506100704 11 37 3.2 9.7 0.00 0.00 0.00 84 1009.0
20260506100207 11 37 3.2 11.3 0.00 0.00 0.00 83 1009.0
20260506095707 11 38 3.2 14.5 0.00 0.00 0.00 82 1009.0
20260506095205 11 26 3.2 14.5 0.00 0.00 0.00 82 1009.0
20260506094705 11 31 4.8 8.0 0.00 0.00 0.00 82 1008.9
20260506094205 11 31 4.8 11.3 0.00 0.00 0.00 81 1008.9
20260506093705 11 25 6.4 11.3 0.00 0.00 0.00 81 1008.8
20260506093205 11 20 4.8 12.9 0.00 0.00 0.00 81 1008.9
20260506092705 11 23 3.2 11.3 0.00 0.00 0.00 81 1008.9
20260506092205 11 23 3.2 14.5 0.00 0.00 0.00 81 1008.8
20260506091705 11 35 4.8 12.9 0.00 0.00 0.00 81 1008.8
20260506091205 11 15 3.2 12.9 0.00 0.00 0.00 81 1008.7
20260506090705 11 64 3.2 9.7 0.00 0.00 0.00 82 1008.7
20260506090205 11 68 3.2 11.3 0.00 0.00 0.00 82 1008.6
20260506085705 11 71 1.6 14.5 0.00 0.00 0.00 83 1008.6
20260506085205 11 68 1.6 8.0 0.00 0.00 0.00 83 1008.5
20260506084705 11 68 3.2 9.7 0.00 0.00 0.00 83 1008.5
20260506084205 11 66 1.6 6.4 0.00 0.00 0.00 84 1008.4
20260506083705 11 65 1.6 8.0 0.00 0.00 0.00 83 1008.4
20260506083205 11 65 3.2 14.5 0.00 0.00 0.00 84 1008.4
20260506082705 11 27 4.8 12.9 0.00 0.00 0.00 84 1008.3
20260506082205 11 22 3.2 12.9 0.00 0.00 0.00 84 1008.2
20260506081705 11 29 4.8 16.1 0.00 0.00 0.00 83 1008.3
20260506081205 11 18 4.8 12.9 0.00 0.00 0.00 81 1008.3
20260506080705 11 19 4.8 11.3 0.00 0.00 0.00 80 1008.2
20260506080205 11 18 4.8 12.9 0.00 0.00 0.00 80 1008.1
20260506073205 11 10 4.8 16.1 0.00 0.00 0.00 80 1008.0
20260506072705 11 8 4.8 12.9 0.00 0.00 0.00 79 1008.0
20260506072205 11 8 3.2 9.7 0.00 0.00 0.00 80 1007.9
20260506071705 11 9 3.2 16.1 0.00 0.00 0.00 80 1007.9
20260506071205 11 11 4.8 11.3 0.00 0.00 0.00 80 1007.9
20260506070705 11 11 4.8 14.5 0.00 0.00 0.00 80 1007.9
20260506070205 11 18 3.2 11.3 0.00 0.00 0.00 80 1007.9
20260506062205 10 23 1.6 11.3 0.00 0.00 0.00 84 1007.8
20260506061705 10 23 1.6 9.7 0.00 0.00 0.00 84 1007.8
20260506061205 10 23 1.6 6.4 0.00 0.00 0.00 84 1007.8
20260506060705 10 23 1.6 6.4 0.00 0.00 0.00 84 1007.8
20260506060205 10 23 1.6 11.3 0.00 0.00 0.00 84 1007.7
20260506051205 9 24 1.6 8.0 0.00 0.00 0.00 83 1007.7
20260506050705 9 24 1.6 9.7 0.00 0.00 0.00 83 1007.7
20260506050205 8 24 1.6 8.0 0.00 0.00 0.00 84 1007.7
20260506044705 8 24 1.6 9.7 0.00 0.00 0.00 84 1007.7
20260506044205 8 24 1.6 8.0 0.00 0.00 0.00 84 1007.7
20260506043705 8 24 1.6 6.4 0.00 0.00 0.00 84 1007.7
20260506043205 8 24 1.6 11.3 0.00 0.00 0.00 84 1007.7
20260506042705 8 25 1.6 3.2 0.00 0.00 0.00 84 1007.7
20260506042205 8 25 1.6 8.0 0.00 0.00 0.00 84 1007.7
20260506041705 8 25 1.6 6.4 0.00 0.00 0.00 84 1007.7
20260506041205 8 25 1.6 8.0 0.00 0.00 0.00 84 1007.6
20260506040705 8 24 1.6 0.0 0.00 0.00 0.00 84 1007.7
20260506040205 8 25 1.6 9.7 0.00 0.00 0.00 84 1007.7
20260506035705 8 25 1.6 9.7 0.00 0.00 0.00 84 1007.8
20260506035205 8 24 1.6 9.7 0.00 0.00 0.00 84 1007.8
20260506034705 8 25 1.6 6.4 0.00 0.00 0.00 84 1007.8
20260506034205 8 24 1.6 6.4 0.00 0.00 0.00 84 1007.8
20260506033705 8 25 1.6 6.4 0.00 0.00 0.00 83 1007.8
20260506033205 8 25 3.2 8.0 0.00 0.00 0.00 83 1007.9
20260506032705 8 25 3.2 9.7 0.00 0.00 0.00 83 1007.9
20260506032205 8 25 3.2 9.7 0.00 0.00 0.00 83 1007.8
20260506031705 8 25 3.2 8.0 0.00 0.00 0.00 83 1007.8
20260506031205 8 25 1.6 8.0 0.00 0.00 0.00 83 1007.8
20260506030705 8 25 1.6 8.0 0.00 0.00 0.00 83 1007.8
20260506030205 8 25 3.2 9.7 0.00 0.00 0.00 83 1007.9
20260506025705 8 25 3.2 8.0 0.00 0.00 0.00 83 1007.9
20260506025205 8 25 1.6 8.0 0.00 0.00 0.00 83 1007.9
20260506024705 9 25 1.6 9.7 0.00 0.00 0.00 83 1007.9
20260506024205 9 25 1.6 9.7 0.00 0.00 0.00 82 1007.9
20260506023705 9 25 3.2 9.7 0.00 0.00 0.00 82 1007.9
20260506023205 9 25 4.8 9.7 0.00 0.00 0.00 82 1007.9
20260506022705 9 25 3.2 11.3 0.00 0.00 0.00 82 1007.9
20260506022205 9 25 3.2 11.3 0.00 0.00 0.00 82 1007.9
20260506021705 9 25 1.6 8.0 0.00 0.00 0.00 82 1007.9
20260506021205 9 25 3.2 9.7 0.00 0.00 0.00 82 1008.0
20260506020705 9 25 3.2 11.3 0.00 0.00 0.00 82 1008.0
20260506020205 9 25 3.2 6.4 0.00 0.00 0.00 82 1008.0
20260506015705 9 25 3.2 8.0 0.00 0.00 0.00 82 1008.0
20260506015205 9 25 3.2 9.7 0.00 0.00 0.00 82 1008.0
20260506014705 9 25 1.6 6.4 0.00 0.00 0.00 83 1008.0
20260506014205 9 25 1.6 9.7 0.00 0.00 0.00 83 1008.0
20260506013705 9 26 1.6 8.0 0.00 0.00 0.00 83 1008.0
20260506013205 9 26 4.8 8.0 0.00 0.00 0.00 83 1008.0
20260506012705 9 26 4.8 12.9 0.00 0.00 0.00 83 1008.1
20260506012205 9 26 3.2 8.0 0.00 0.00 0.00 84 1008.1
20260506011705 9 26 1.6 9.7 0.00 0.00 0.00 84 1008.1
20260506011205 9 26 1.6 9.7 0.00 0.00 0.00 84 1008.0
20260506010705 10 26 3.2 12.9 0.00 0.00 0.00 84 1008.0
20260506010205 10 27 3.2 9.7 0.00 0.00 0.00 84 1008.1
20260506005705 10 27 1.6 11.3 0.00 0.00 0.00 84 1008.0
20260506005205 10 27 3.2 8.0 0.00 0.00 0.00 84 1008.1
20260506004705 10 27 3.2 11.3 0.00 0.00 0.00 84 1008.1
20260506004205 10 28 1.6 8.0 0.00 0.00 0.00 84 1008.1
20260506003705 10 28 1.6 6.4 0.00 0.00 0.00 84 1008.1
20260506003205 10 29 3.2 8.0 0.00 0.00 0.00 84 1008.2
20260506002705 10 30 3.2 11.3 0.00 0.00 0.00 84 1008.3
20260506002205 10 16 1.6 8.0 0.00 0.00 0.00 84 1008.3
20260506001705 10 16 1.6 9.7 0.00 0.00 0.00 84 1008.3
20260506001205 10 16 1.6 9.7 0.00 0.00 0.00 84 1008.3
20260506000705 10 16 3.2 9.7 0.00 0.00 0.00 84 1008.3
20260506000205 10 16 3.2 11.3 0.00 0.00 0.00 84 1008.4
20260505235705 10 18 1.6 12.9 0.00 0.00 0.00 84 1008.5
20260505235205 10 20 1.6 6.4 0.00 0.00 0.00 84 1008.4
20260505234705 10 20 3.2 9.7 0.00 0.00 0.00 84 1008.5
20260505234205 10 21 3.2 12.9 0.00 0.00 0.00 84 1008.4
20260505233705 10 21 1.6 11.3 0.00 0.00 0.00 84 1008.4
20260505233205 10 23 0.0 4.8 0.00 0.00 0.00 84 1008.4
20260505232705 10 23 1.6 4.8 0.00 0.00 0.00 84 1008.4
20260505232205 10 23 1.6 9.7 0.00 0.00 0.00 84 1008.4
20260505231705 10 23 1.6 8.0 0.00 0.00 0.00 84 1008.4
20260505231205 10 23 1.6 8.0 0.00 0.00 0.00 83 1008.4
20260505230706 10 23 1.6 6.4 0.00 0.00 0.00 83 1008.5
20260505230205 10 23 1.6 3.2 0.00 0.00 0.00 83 1008.5
20260505225705 11 23 3.2 11.3 0.00 0.00 0.00 83 1008.5
20260505225206 11 23 1.6 8.0 0.00 0.00 0.00 83 1008.5
20260505224706 11 23 1.6 9.7 0.00 0.00 0.00 83 1008.5
20260505224206 11 23 1.6 8.0 0.00 0.00 0.00 82 1008.5
20260505223706 11 23 1.6 8.0 0.00 0.00 0.00 82 1008.5
20260505223206 11 23 3.2 9.7 0.00 0.00 0.00 82 1008.6
20260505222706 11 23 1.6 8.0 0.00 0.00 0.00 82 1008.5
20260505222206 11 23 3.2 8.0 0.00 0.00 0.00 82 1008.6
20260505221706 11 23 3.2 9.7 0.00 0.00 0.00 81 1008.6
20260505221206 11 23 3.2 8.0 0.00 0.00 0.00 81 1008.6
20260505220706 11 23 3.2 9.7 0.00 0.00 0.00 81 1008.6
20260505220206 11 23 1.6 9.7 0.00 0.00 0.00 81 1008.7
20260505215706 11 23 1.6 8.0 0.00 0.00 0.00 81 1008.7
20260505215206 11 23 1.6 8.0 0.00 0.00 0.00 81 1008.7
20260505214706 11 23 1.6 9.7 0.00 0.00 0.00 80 1008.7
20260505214206 11 23 1.6 6.4 0.00 0.00 0.00 80 1008.7
20260505213706 11 23 1.6 6.4 0.00 0.00 0.00 80 1008.7
20260505213206 11 23 1.6 8.0 0.00 0.00 0.00 81 1008.7
20260505212706 11 23 3.2 9.7 0.00 0.00 0.00 81 1008.7
20260505212206 11 23 1.6 8.0 0.00 0.00 0.00 81 1008.7
20260505211706 11 23 3.2 8.0 0.00 0.00 0.00 80 1008.6
20260505211206 11 23 3.2 11.3 0.00 0.00 0.00 80 1008.7
20260505210706 11 23 3.2 14.5 0.00 0.00 0.00 80 1008.7
20260505210206 11 27 3.2 11.3 0.00 0.00 0.00 80 1008.7
20260505205706 11 26 3.2 9.7 0.00 0.00 0.00 80 1008.6
20260505205206 11 25 3.2 11.3 0.00 0.00 0.00 79 1008.6
20260505204706 11 17 3.2 11.3 0.00 0.00 0.00 79 1008.7
20260505204206 11 16 3.2 16.1 0.00 0.00 0.00 79 1008.7
20260505203706 11 27 3.2 11.3 0.00 0.00 0.00 79 1008.6
20260505203206 11 27 3.2 12.9 0.00 0.00 0.00 78 1008.5
20260505202706 11 29 3.2 11.3 0.00 0.00 0.00 78 1008.5
20260505202206 12 20 3.2 12.9 0.00 0.00 0.00 78 1008.4
20260505201706 12 25 3.2 11.3 0.00 0.00 0.00 77 1008.4
20260505201206 12 24 3.2 11.3 0.00 0.00 0.00 77 1008.4
20260505200706 12 25 3.2 16.1 0.00 0.00 0.00 77 1008.4
20260505200206 12 23 4.8 11.3 0.00 0.00 0.00 76 1008.3
20260505195706 12 18 4.8 16.1 0.00 0.00 0.00 76 1008.3
20260505195206 12 29 4.8 12.9 0.00 0.00 0.00 76 1008.2
20260505194706 12 30 4.8 9.7 0.00 0.00 0.00 76 1008.1
20260505194206 12 30 4.8 12.9 0.00 0.00 0.00 75 1008.1
20260505193706 12 20 4.8 14.5 0.00 0.00 0.00 75 1008.0
20260505193206 12 33 4.8 16.1 0.00 0.00 0.00 75 1008.0
20260505192706 12 18 4.8 14.5 0.00 0.00 0.00 75 1007.9
20260505192206 12 34 4.8 11.3 0.00 0.00 0.00 75 1007.9
20260505191706 12 31 4.8 12.9 0.00 0.00 0.00 75 1007.9
20260505191206 13 13 4.8 16.1 0.00 0.00 0.00 74 1007.9
20260505190706 13 24 4.8 12.9 0.00 0.00 0.00 74 1007.9
20260505190206 13 21 4.8 14.5 0.00 0.00 0.00 74 1007.9
20260505185706 13 40 4.8 19.3 0.00 0.00 0.00 74 1007.8